Dewpoint
-29 -29 -28 -24 -21 -20 -21 -21 -18 -14 -12 -10 -8 -8 -7 -7 -7 -7 -8 -9 -12 -14 -12 -9 -6 5 4 3 -1 -6 -2 -4 -0 4 4 2 7 6 6 4 4 5 3 3 2 2 1
-28 -29 -29 -24 -22 -21 -20 -19 -17 -13 -10 -9 -7 -7 -6 -6 -7 -7 -8 -8 -9 -12 -11 -9 -6 5 3 2 -8 -8 -6 -7 -4 3 5 7 7 6 4 3 5 3 3 3 2 2 2
-28 -29 -28 -23 -21 -20 -18 -18 -15 -12 -9 -6 -4 -5 -5 -6 -6 -6 -7 -8 -9 -11 -11 -4 -2 4 3 0 -4 -5 -2 1 4 5 4 6 5 6 4 3 2 2 2 0 0 2 2
-29 -29 -26 -22 -19 -17 -16 -14 -11 -7 -3 -1 -2 -1 -4 -5 -5 -6 -7 -8 -8 -11 -8 1 2 4 3 -1 -1 -1 -2 2 6 7 6 7 6 5 2 -0 -4 -1 -0 4 1 -0 -1
-30 -29 -23 -20 -17 -13 -10 -5 -1 0 2 2 -1 -5 -7 -7 -8 -7 -9 -11 -10 -11 -4 4 4 3 3 1 1 -1 -3 -1 5 7 7 6 7 4 -2 1 1 -2 1 1 -0 -1 -1
-30 -26 -20 -18 -12 -8 -4 1 2 2 2 1 -2 -7 -12 -14 -14 -16 -16 -10 -12 -11 3 5 4 4 2 1 -4 -6 -2 -2 3 5 6 2 2 0 1 3 6 4 1 -0 0 -2 -1
-27 -23 -20 -15 -8 -2 1 2 1 1 1 -2 -3 -6 -8 -13 -12 -14 -6 -13 -12 -9 -8 -1 -0 4 0 -1 -5 -8 -9 -7 -4 0 1 -8 -0 3 3 1 1 -1 -0 0 -1 -3 -2
-24 -21 -15 -8 -1 1 2 1 0 -0 -1 -1 -2 -4 -7 -12 -14 -7 -9 -4 -3 -4 -3 -3 -6 -3 -3 -3 -1 -1 -9 -10 -8 -7 -7 -6 -1 -0 -2 -1 -0 0 1 -0 -3 -4 -4
-21 -14 -7 -1 1 1 0 -2 -2 -1 -2 -2 -4 -4 -9 -9 -15 -10 -3 -3 -3 -2 -0 -1 -1 -0 -0 -0 -0 -1 -5 -10 -8 -6 -6 -4 -5 -6 -3 -3 -2 -2 1 0 -0 -4 -4
-13 -5 -1 2 0 -1 -1 -1 -0 -0 -1 -3 -5 -5 -10 -10 -8 -4 -3 -3 -2 -0 -0 -3 -0 -1 -3 -1 -1 -2 -3 -9 -8 -6 -6 -6 -7 -5 -5 -4 -4 -1 -4 -4 -3 -2 1
-4 -1 0 -0 -1 -0 1 0 -0 -0 -1 -5 -6 -9 -10 -10 -4 -2 -4 -5 -0 -0 0 -4 -2 -8 -7 -8 -8 -9 -9 -9 -6 -5 -7 -5 -5 -5 -4 -5 -5 -3 -4 -4 -3 -1 0
-3 -0 0 -0 0 1 0 -1 -0 -0 -3 -3 -8 -14 -9 -7 -3 -3 -4 -6 -1 1 -1 -1 -7 -7 -6 -6 -5 -11 -11 -10 -10 -8 -9 -6 -11 -9 -5 -11 -5 -6 -7 -6 -1 2 3
-1 -0 -0 -0 -2 -2 -1 0 -0 -2 -3 -4 -9 -8 -7 -3 -3 -4 -6 -5 -1 -1 -6 -3 -6 -7 -5 -2 0 1 -6 -8 -6 -5 -5 -5 -8 -12 -12 -10 -11 -8 -4 3 2 2 1
0 -0 -0 -1 -1 -6 -2 -2 -1 -1 -3 -6 -9 -10 -7 -5 -5 -7 -6 -5 -2 -3 -3 -5 -6 -5 -1 -3 -3 -4 0 1 1 0 0 1 1 -10 -12 -8 -7 -6 -4 0 -2 1 -1
0 -0 -0 -0 -2 -2 -1 -1 -1 -2 -4 -6 -9 -12 -10 -8 -7 -4 -4 -3 -2 -2 -2 -2 -5 -5 -5 -5 -6 -6 -1 -1 -1 -1 1 1 1 -4 -10 -8 -5 -4 -3 -1 -3 -4 -2
-1 0 0 -8 -2 -2 -3 -1 -2 -2 -4 -6 -8 -10 -10 -9 -9 -6 -5 -4 -3 -3 -6 -3 -1 -5 -5 -4 -4 -5 -3 -3 -3 -3 -3 -2 -1 -2 -9 -5 -3 -0 0 2 2 3 3
-0 -2 -15 -7 -3 -4 -2 -3 -2 -2 -4 -8 -9 -6 -9 -8 -10 -7 -4 -4 -4 -6 -6 -3 -2 -3 -5 -3 -5 -5 -3 -4 -4 -4 -4 -5 -4 -4 -3 -1 -0 0 -1 0 0 1 2
-11 -18 -15 -8 -5 -3 -3 -3 -3 -3 -4 -8 -5 -5 -8 -9 -8 -6 -5 -5 -6 -5 -7 -6 -3 -2 -2 -4 -5 -5 -2 -6 -5 -6 -5 -4 -4 -3 -1 -1 -1 -1 -1 -3 0 -1 -1
-20 -19 -12 -7 -2 -2 -3 -3 -3 -4 -4 -6 -3 -4 -7 -7 -4 -5 -6 -5 -6 -6 -5 -3 -3 -3 -4 -4 -4 -6 -3 -5 -5 -8 -6 -6 -6 -6 -5 -1 -4 -2 -2 -2 -3 -2 -1
-21 -19 -11 -5 -1 -2 -3 -3 -3 -3 -6 -7 -3 -4 -5 -6 -5 -4 -5 -4 -4 -6 -3 -4 -3 -4 -4 -3 -3 -4 -7 -6 -7 -8 -7 -7 -8 -6 -6 -4 -4 -3 -3 -3 -4 -3 -2
-20 -16 -9 -3 -1 -2 -3 -3 -3 -3 -5 -6 -4 -4 -3 -5 -5 -4 -5 -4 -3 -4 -5 -5 -5 -5 -3 -3 -4 -4 -7 -7 -8 -8 -7 -10 -8 -6 -7 -6 -5 -4 -5 -4 -3 -5 -5
-20 -14 -9 -5 -5 -2 -3 -2 -2 -4 -5 -4 -4 -4 -4 -5 -4 -6 -5 -4 -4 -5 -5 -5 -4 -4 -4 -3 -3 -4 -5 -6 -7 -10 -8 -9 -8 -6 -7 -6 -6 -5 -5 -4 -5 -5 -7
-18 -14 -12 -10 -8 -5 -5 -3 -3 -4 -4 -4 -4 -4 -4 -6 -6 -6 -4 -5 -5 -5 -7 -4 -4 -4 -5 -4 -4 -4 -4 -5 -7 -6 -7 -8 -8 -9 -9 -10 -8 -7 -7 -6 -6 -6 -7
-17 -16 -10 -10 -13 -12 -10 -4 -4 -5 -3 -3 -4 -4 -4 -6 -8 -4 -6 -5 -6 -6 -5 -5 -5 -8 -5 -6 -7 -8 -9 -6 -7 -7 -5 -9 -6 -7 -9 -8 -9 -5 -11 -10 -8 -8 -8
-16 -15 -12 -12 -13 -11 -9 -5 -4 -4 -4 -4 -4 -4 -4 -7 -6 -6 -6 -6 -7 -7 -6 -5 -5 -5 -6 -7 -10 -11 -10 -9 -7 -6 -6 -5 -5 -5 -7 -7 -8 -4 -6 -10 -9 -7 -7
-16 -14 -14 -13 -11 -11 -10 -7 -4 -3 -4 -4 -3 -4 -4 -4 -5 -5 -6 -6 -6 -9 -9 -7 -6 -6 -7 -9 -9 -8 -6 -6 -6 -7 -5 -4 -5 -6 -7 -9 -4 -4 -4 -6 -9 -5 -6
-17 -14 -13 -12 -11 -11 -10 -9 -6 -5 -3 -4 -4 -4 -4 -5 -4 -5 -6 -5 -7 -7 -9 -7 -7 -6 -8 -10 -8 -7 -6 -7 -6 -5 -5 -5 -6 -6 -4 -6 -5 -5 -6 -6 -10 -9 -5
-16 -14 -13 -13 -12 -11 -9 -9 -9 -8 -4 -4 -4 -5 -5 -6 -6 -5 -6 -6 -7 -7 -8 -8 -9 -9 -9 -9 -9 -9 -9 -9 -9 -7 -5 -5 -5 -6 -8 -8 -5 -6 -7 -7 -7 -6 -6
-16 -14 -13 -12 -11 -10 -9 -9 -9 -9 -7 -7 -6 -8 -7 -5 -6 -5 -5 -6 -8 -8 -7 -8 -6 -6 -6 -7 -11 -11 -9 -12 -9 -8 -8 -6 -6 -6 -7 -5 -6 -7 -7 -7 -6 -6 -6
Wind_Speed
22 22 23 25 27 28 30 31 32 32 33 34 34 35 35 36 35 35 36 33 29 31 25 23 18 10 6 9 21 9 10 7 9 21 39 37 31 27 11 6 5 7 1 15 26 11 9
22 24 25 28 29 30 31 32 32 33 33 35 36 35 34 35 35 35 35 32 31 33 24 22 17 10 11 8 9 8 11 13 14 20 32 30 22 30 13 7 16 8 15 18 11 12 10
24 26 27 28 30 31 32 33 34 35 36 36 36 37 34 35 36 37 35 32 30 33 23 17 11 11 13 24 10 10 9 9 9 19 30 32 14 25 11 2 20 8 3 3 6 9 7
27 28 28 29 30 32 33 35 35 36 37 37 37 37 39 39 39 39 38 35 31 28 18 11 6 10 12 11 10 14 11 10 10 14 15 27 29 24 7 5 2 6 4 6 8 9 6
28 28 29 29 31 33 34 34 36 37 35 37 39 41 43 44 42 41 41 37 31 21 12 8 6 10 12 8 11 9 15 12 11 14 17 13 29 15 7 4 1 5 4 6 2 11 8
28 29 30 32 33 33 33 34 34 35 36 41 40 42 46 45 44 41 40 33 22 14 5 7 10 8 13 4 4 6 12 13 13 15 15 15 9 4 7 9 15 7 5 4 6 7 7
29 30 31 32 33 34 33 34 36 38 40 44 46 45 47 45 44 39 27 34 10 2 4 9 9 10 11 10 7 8 10 15 12 15 7 3 7 16 21 19 4 3 4 5 4 3 5
29 30 32 32 33 34 33 35 36 37 40 43 48 52 50 49 45 20 30 8 14 16 16 22 29 34 33 27 6 13 12 11 7 6 5 2 13 5 6 7 9 12 9 6 3 3 1
30 31 32 33 32 31 32 36 35 37 40 45 49 50 51 53 40 23 11 10 25 11 8 10 10 8 5 13 10 15 12 9 4 7 8 8 6 9 12 6 9 10 17 8 7 3 3
30 32 32 31 33 34 35 37 39 40 41 47 50 48 52 54 22 19 10 21 17 5 6 6 3 1 2 0 4 12 14 10 4 11 7 6 7 6 5 8 10 14 8 8 7 5 5
32 31 31 32 33 34 36 37 39 39 41 46 48 47 49 42 24 14 22 27 7 4 5 4 4 5 6 2 4 1 11 5 6 5 6 6 4 5 8 10 10 6 8 12 8 7 1
31 30 31 32 33 34 36 37 38 40 42 42 46 45 45 29 11 19 27 28 1 3 8 8 8 13 15 11 7 5 1 1 1 3 2 5 1 3 5 2 10 6 6 6 5 3 4
30 29 30 31 34 35 35 35 39 40 40 40 42 40 27 18 13 25 30 18 4 4 10 9 11 13 7 8 8 10 6 3 2 2 5 2 3 1 2 4 3 3 7 3 1 2 4
29 29 29 32 33 34 35 36 36 37 37 38 38 35 20 20 24 33 18 4 1 12 6 9 10 9 6 10 4 7 11 0 6 4 1 4 3 3 1 2 6 6 6 5 7 5 3
29 30 31 32 34 33 33 34 36 36 36 36 38 19 24 31 29 25 5 4 5 7 9 8 11 6 4 5 4 9 5 8 6 11 4 4 0 4 6 4 2 4 3 3 6 1 3
28 30 29 32 30 32 32 32 34 35 37 38 36 18 25 30 20 16 7 7 5 4 7 5 5 5 5 7 6 6 7 6 6 8 5 6 4 4 4 2 7 3 2 3 0 5 6
27 29 33 30 31 30 29 31 34 35 38 37 29 11 25 29 17 15 4 3 4 9 14 3 4 4 4 4 4 5 6 2 5 6 4 1 2 4 1 5 2 1 2 3 2 1 1
28 30 30 29 29 27 28 31 34 34 37 36 18 4 25 27 9 4 4 9 10 5 14 4 1 3 3 4 3 3 3 2 8 6 4 4 3 3 1 3 4 2 2 3 3 2 1
26 27 27 28 28 26 28 30 31 31 33 33 13 7 14 20 4 7 7 5 4 8 6 6 4 2 2 4 3 2 1 2 5 6 1 4 2 3 0 1 5 5 8 4 2 3 0
26 25 27 28 27 27 28 28 27 26 29 23 8 5 7 7 7 3 10 4 8 12 4 6 4 4 5 4 3 3 2 2 3 3 10 3 2 3 3 0 2 3 5 8 3 2 3
24 25 27 27 25 25 26 26 24 24 25 18 9 3 3 5 4 8 6 5 6 10 5 9 4 10 11 4 3 3 2 5 4 9 4 4 1 2 4 3 2 3 4 3 3 2 3
23 24 26 25 24 23 25 24 22 22 23 12 6 6 7 9 10 6 6 5 13 13 3 6 6 15 8 6 4 2 1 1 2 5 3 4 2 2 3 3 3 3 5 4 4 1 3
22 24 25 26 24 23 22 20 19 20 20 9 13 11 4 7 6 4 6 8 9 14 5 4 9 6 6 11 19 13 7 4 1 2 1 2 2 2 4 4 4 3 3 4 3 3 6
22 23 24 24 23 22 21 18 18 16 16 14 11 9 3 4 2 4 5 6 12 10 4 8 10 3 8 25 14 2 2 3 1 3 2 2 1 2 3 3 3 3 5 2 6 3 4
22 23 23 23 22 20 20 17 16 15 15 14 11 6 3 3 4 5 14 6 15 17 4 3 7 12 19 11 5 6 4 2 2 0 2 4 2 1 1 1 2 2 4 5 4 3 4
21 22 21 21 20 20 19 18 17 15 16 14 9 7 4 5 3 7 5 7 5 4 7 4 17 13 12 3 4 3 3 3 4 7 2 2 3 2 2 2 2 3 2 7 2 2 4
21 21 20 20 19 19 19 19 17 16 14 14 8 8 4 3 4 8 4 5 9 7 3 6 15 8 11 3 3 3 3 1 4 6 4 3 2 2 2 1 2 4 13 10 4 3 4
20 21 20 19 18 17 17 18 18 16 11 11 9 12 5 3 3 3 5 6 7 6 4 11 8 5 4 5 3 2 2 2 2 3 4 3 2 2 2 3 2 12 6 5 2 3 4
20 19 18 18 17 16 17 18 17 14 13 12 9 11 7 2 2 2 4 6 8 9 5 8 4 5 4 1 2 1 2 2 0 3 4 3 1 1 2 1 2 8 8 6 9 7 8
Wind_Direction
3 1 359 359 1 359 359 359 358 359 355 351 349 346 345 343 341 340 340 339 332 331 324 320 302 271 235 245 245 237 217 211 230 193 198 198 190 198 195 193 204 235 236 224 231 229 221
1 359 360 1 360 359 358 357 354 354 353 349 346 343 342 338 337 336 336 337 330 329 320 314 298 230 222 250 264 230 239 236 215 212 200 197 200 194 190 193 193 186 205 231 239 224 226
360 1 1 359 358 357 354 352 352 351 349 347 344 342 341 336 335 334 333 333 328 325 318 312 291 226 233 254 256 225 224 206 209 215 200 199 205 186 199 202 234 216 222 220 211 215 231
1 360 358 357 356 353 352 351 349 347 347 345 345 342 340 335 332 330 328 328 324 317 310 297 260 208 251 269 250 234 212 212 203 210 198 207 200 201 187 180 83 168 166 232 186 179 222
0 358 356 356 354 353 351 349 348 347 348 349 346 346 341 335 330 327 324 325 324 302 296 270 208 229 261 260 248 242 205 204 182 195 214 197 195 207 173 154 169 212 201 214 252 195 178
358 356 354 354 352 350 349 349 348 348 349 346 346 345 343 338 334 332 326 326 324 296 255 227 250 227 252 260 242 233 209 207 188 179 186 194 192 179 187 188 218 199 213 203 184 204 188
356 354 352 351 350 350 351 350 352 349 342 345 348 345 346 338 335 336 339 342 355 311 281 246 238 249 266 264 266 219 196 182 177 178 186 200 204 211 211 213 217 120 177 179 202 194 171
353 352 352 350 350 350 353 352 349 343 338 341 344 346 347 341 338 343 338 36 12 312 295 283 275 270 269 250 281 219 201 177 166 180 130 84 239 226 191 196 225 230 232 207 273 271 63
353 353 350 349 353 356 353 350 350 348 346 341 339 343 345 340 340 339 5 11 342 329 268 289 260 262 307 204 212 234 200 193 162 164 187 182 211 195 182 171 202 228 232 224 219 183 257
353 352 352 355 359 354 351 350 347 346 342 337 336 341 343 338 349 355 26 342 343 334 291 282 289 344 309 153 218 216 232 187 198 198 161 230 240 143 173 207 178 233 188 179 191 157 231
355 354 359 0 354 353 348 343 341 340 337 334 333 340 339 338 341 8 347 342 334 313 317 350 45 25 325 274 322 71 188 207 179 178 134 229 192 166 201 218 182 221 178 186 179 197 182
355 2 0 354 352 346 342 340 339 335 334 334 333 343 336 338 355 357 353 349 298 244 252 353 36 354 358 355 5 352 83 107 94 166 213 239 333 170 192 105 180 143 89 63 47 120 220
3 359 353 348 342 340 342 344 340 345 346 342 345 342 348 357 356 346 340 345 343 246 343 15 331 334 342 338 358 0 343 31 338 159 211 208 202 176 172 105 59 125 135 146 137 184 221
358 352 347 343 344 346 346 347 351 347 347 352 350 355 20 4 343 337 349 44 323 3 11 329 324 323 54 351 353 341 343 37 48 328 261 196 240 170 139 239 180 177 175 167 183 181 216
350 347 348 348 347 354 355 352 354 351 349 351 351 27 8 358 345 353 6 55 39 355 325 316 322 16 4 1 4 354 39 13 38 352 341 358 208 342 35 355 9 185 185 150 102 103 79
350 348 347 347 353 353 360 357 358 355 351 355 351 8 7 4 0 23 54 47 1 333 312 320 356 339 338 338 2 8 5 359 351 14 8 4 335 1 346 332 21 75 101 84 74 197 207
346 344 345 351 354 1 2 2 359 358 354 356 357 354 359 7 3 26 39 308 295 319 333 301 318 307 337 336 346 348 5 300 348 332 14 40 67 307 357 25 345 60 81 85 87 8 214
341 344 347 353 356 1 1 1 355 355 353 359 356 357 357 13 39 8 1 316 319 322 355 354 348 302 308 306 329 338 18 198 348 341 11 345 38 342 355 10 9 46 43 131 146 226 44
347 347 351 352 355 1 359 356 353 355 359 353 349 315 7 23 29 356 315 289 304 341 345 351 315 310 314 288 326 283 21 309 16 26 31 310 15 1 46 155 24 17 5 13 47 106 40
347 350 352 353 351 1 355 351 351 356 359 360 6 349 345 18 15 2 337 325 344 335 310 336 278 326 329 303 231 295 307 27 1 16 353 39 52 132 177 271 292 349 5 350 35 88 160
348 351 353 352 351 355 351 349 354 355 0 12 18 353 355 319 350 345 320 304 337 1 337 335 326 342 315 278 281 234 49 346 5 359 38 86 129 39 303 299 259 237 274 318 351 220 109
348 350 353 351 356 354 351 353 357 356 359 25 18 353 324 299 307 342 340 337 340 339 284 318 337 332 337 350 351 2 42 179 260 341 45 4 300 69 303 290 313 283 248 207 234 204 54
350 352 352 354 355 354 351 354 1 355 357 13 354 348 324 304 338 2 358 332 324 333 305 327 342 325 352 349 328 315 308 279 224 146 37 18 116 73 279 300 332 25 275 225 192 179 147
347 349 351 352 351 356 357 358 358 360 355 355 352 335 320 289 38 330 325 317 332 321 271 316 346 35 320 326 323 290 41 70 57 284 214 149 189 115 243 2 28 278 350 133 114 41 2
350 347 350 348 355 355 359 358 355 358 348 351 357 3 323 290 303 339 340 321 331 346 330 305 328 327 332 334 21 13 351 29 17 280 265 215 211 138 132 209 283 156 1 17 7 13 331
345 346 347 351 353 351 354 356 358 358 347 350 349 3 319 310 16 3 309 347 345 321 336 322 347 339 352 52 50 42 11 313 335 346 309 342 121 109 43 95 355 34 285 326 266 35 345
343 345 345 349 349 349 353 356 355 353 348 350 356 354 318 312 2 12 353 335 338 332 289 316 341 334 7 17 43 27 326 310 5 345 343 6 13 47 32 31 352 316 313 320 78 259 23
341 342 344 345 346 347 352 353 352 354 357 344 344 344 333 290 312 351 350 342 345 354 339 318 348 356 352 33 58 298 42 281 6 309 344 13 348 23 49 49 18 343 338 75 268 3 69
341 341 343 346 347 349 351 351 351 357 1 356 337 346 349 238 270 282 311 351 350 346 313 319 290 295 327 358 3 22 338 7 212 334 349 27 13 295 116 41 30 31 62 43 37 65 51
Height
1551 1547 1543 1538 1534 1530 1525 1520 1515 1509 1504 1498 1492 1486 1481 1475 1469 1464 1458 1453 1447 1442 1437 1433 1430 1431 1432 1431 1414 1416 1416 1417 1417 1418 1417 1422 1432 1440 1442 1441 1445 1444 1444 1444 1446 1447 1448
1551 1547 1542 1538 1534 1529 1524 1518 1513 1508 1503 1497 1491 1485 1479 1472 1466 1460 1455 1449 1443 1438 1433 1429 1426 1426 1427 1426 1411 1411 1411 1412 1414 1415 1419 1424 1424 1427 1431 1433 1435 1434 1437 1441 1443 1444 1446
1551 1546 1542 1538 1533 1528 1523 1517 1512 1507 1501 1495 1488 1481 1476 1469 1462 1456 1450 1445 1439 1433 1428 1425 1423 1422 1422 1409 1407 1408 1408 1408 1410 1410 1413 1418 1423 1427 1428 1430 1431 1431 1436 1436 1436 1439 1441
1550 1546 1541 1537 1532 1527 1522 1516 1511 1505 1499 1492 1486 1479 1472 1466 1459 1452 1445 1440 1434 1428 1424 1422 1420 1420 1413 1404 1404 1403 1405 1406 1407 1409 1414 1417 1422 1425 1425 1426 1428 1432 1436 1439 1429 1434 1436
1550 1545 1541 1536 1531 1526 1521 1515 1509 1502 1497 1491 1483 1477 1469 1461 1454 1446 1438 1432 1427 1422 1420 1419 1419 1420 1409 1402 1399 1400 1402 1404 1406 1409 1411 1414 1418 1420 1422 1425 1429 1429 1432 1432 1428 1426 1430
1550 1545 1540 1535 1531 1525 1520 1514 1508 1502 1496 1489 1481 1475 1466 1457 1448 1440 1432 1425 1420 1417 1417 1416 1415 1417 1403 1400 1399 1399 1400 1402 1403 1406 1411 1413 1415 1414 1413 1416 1408 1421 1430 1428 1426 1422 1425
1549 1544 1540 1535 1530 1524 1518 1513 1507 1501 1494 1487 1480 1472 1463 1453 1444 1436 1428 1422 1421 1418 1416 1411 1408 1399 1396 1397 1398 1397 1397 1399 1402 1405 1407 1408 1412 1403 1402 1405 1411 1415 1423 1424 1423 1418 1422
1549 1544 1539 1534 1529 1523 1518 1512 1506 1500 1492 1484 1477 1469 1460 1450 1441 1435 1432 1429 1433 1432 1410 1402 1394 1393 1390 1393 1395 1393 1396 1398 1398 1404 1406 1413 1407 1406 1408 1412 1414 1412 1419 1425 1422 1419 1422
1549 1543 1538 1533 1527 1522 1517 1512 1505 1498 1490 1482 1474 1467 1457 1447 1439 1435 1431 1432 1430 1425 1418 1393 1389 1389 1386 1386 1389 1389 1393 1394 1395 1402 1404 1405 1401 1397 1404 1410 1414 1416 1415 1420 1423 1420 1420
1547 1542 1537 1532 1527 1522 1516 1509 1503 1496 1488 1480 1472 1464 1455 1442 1438 1434 1433 1432 1429 1426 1419 1396 1389 1388 1388 1386 1386 1385 1388 1392 1394 1397 1401 1403 1396 1399 1405 1406 1409 1412 1411 1415 1421 1424 1432
1546 1541 1536 1532 1526 1520 1514 1508 1500 1493 1486 1477 1468 1462 1454 1445 1440 1439 1437 1431 1427 1428 1433 1392 1392 1393 1389 1390 1388 1386 1387 1389 1391 1392 1397 1394 1392 1397 1400 1398 1404 1405 1403 1409 1413 1420 1425
1546 1541 1536 1531 1525 1519 1512 1506 1498 1491 1483 1475 1466 1458 1450 1443 1441 1439 1435 1430 1428 1426 1428 1402 1400 1400 1396 1392 1390 1389 1388 1389 1390 1390 1392 1392 1391 1391 1392 1396 1396 1399 1405 1412 1422 1425 1424
1545 1541 1535 1530 1523 1517 1510 1504 1496 1488 1480 1473 1464 1456 1447 1444 1442 1439 1434 1431 1432 1425 1414 1417 1413 1406 1404 1406 1401 1398 1392 1392 1395 1396 1396 1390 1391 1391 1392 1396 1398 1399 1405 1416 1427 1428 1423
1545 1540 1534 1528 1521 1514 1508 1501 1495 1488 1480 1472 1463 1455 1450 1446 1443 1436 1431 1432 1436 1429 1431 1426 1419 1410 1412 1412 1407 1401 1400 1399 1400 1399 1398 1391 1394 1393 1393 1392 1392 1400 1399 1410 1440 1432 1431
1544 1539 1533 1526 1520 1513 1507 1500 1494 1487 1479 1471 1463 1456 1453 1448 1442 1434 1432 1441 1443 1444 1441 1432 1420 1417 1415 1413 1415 1408 1406 1413 1412 1408 1401 1395 1394 1396 1396 1395 1396 1400 1404 1408 1428 1436 1433
1543 1537 1532 1524 1518 1512 1506 1500 1494 1487 1479 1472 1463 1457 1454 1449 1444 1439 1437 1444 1446 1445 1439 1433 1429 1426 1424 1420 1418 1418 1417 1421 1416 1412 1407 1413 1411 1406 1400 1399 1400 1397 1403 1408 1408 1405 1408
1542 1536 1530 1523 1517 1512 1506 1500 1494 1487 1480 1472 1464 1459 1456 1451 1448 1444 1452 1453 1445 1442 1440 1436 1433 1431 1429 1428 1426 1427 1425 1424 1420 1417 1415 1419 1419 1412 1402 1407 1408 1406 1412 1409 1410 1411 1405
1540 1534 1528 1523 1517 1512 1507 1501 1495 1488 1480 1473 1468 1466 1460 1453 1454 1457 1458 1454 1447 1442 1440 1438 1437 1436 1432 1431 1433 1427 1425 1428 1423 1421 1421 1418 1423 1424 1413 1411 1411 1409 1409 1414 1410 1420 1421
1538 1532 1527 1522 1517 1513 1508 1502 1496 1490 1483 1476 1472 1469 1464 1460 1465 1462 1458 1453 1449 1445 1443 1441 1440 1437 1435 1433 1433 1429 1426 1425 1424 1424 1428 1424 1428 1436 1411 1414 1413 1417 1416 1416 1419 1419 1421
1536 1531 1526 1522 1517 1512 1507 1502 1496 1491 1485 1480 1476 1474 1468 1466 1467 1468 1462 1455 1451 1449 1447 1445 1442 1438 1437 1433 1429 1430 1426 1425 1424 1424 1424 1424 1437 1434 1440 1429 1424 1425 1423 1423 1426 1424 1426
1535 1530 1526 1521 1517 1512 1508 1502 1497 1492 1487 1483 1481 1481 1480 1476 1469 1470 1467 1461 1457 1455 1450 1446 1442 1442 1439 1432 1433 1429 1428 1429 1426 1426 1426 1430 1440 1434 1428 1427 1424 1424 1424 1426 1427 1431 1431
1534 1530 1525 1521 1516 1511 1507 1502 1497 1492 1488 1486 1486 1486 1482 1478 1474 1472 1468 1465 1460 1457 1456 1449 1448 1443 1438 1433 1431 1432 1432 1434 1435 1431 1433 1433 1442 1434 1440 1427 1425 1425 1422 1425 1426 1426 1433
1533 1528 1524 1520 1515 1510 1506 1502 1498 1494 1490 1489 1487 1486 1484 1479 1476 1475 1473 1469 1463 1460 1455 1452 1450 1446 1442 1440 1437 1434 1433 1433 1434 1435 1437 1440 1443 1450 1453 1430 1430 1439 1431 1423 1423 1423 1424
1532 1528 1524 1520 1514 1510 1505 1501 1498 1495 1492 1490 1488 1485 1484 1483 1480 1476 1473 1470 1465 1461 1459 1453 1450 1449 1444 1438 1433 1432 1432 1433 1434 1433 1434 1443 1438 1442 1454 1437 1459 1429 1423 1421 1424 1426 1424
1531 1528 1523 1519 1514 1510 1506 1502 1498 1496 1494 1490 1488 1486 1484 1484 1481 1476 1474 1470 1462 1459 1457 1455 1452 1449 1444 1438 1440 1445 1440 1433 1435 1433 1434 1434 1434 1433 1445 1448 1431 1427 1429 1429 1428 1429 1429
1531 1526 1521 1518 1514 1510 1506 1502 1499 1497 1493 1489 1488 1486 1484 1483 1482 1480 1475 1473 1470 1467 1459 1454 1452 1448 1446 1445 1449 1459 1452 1442 1438 1435 1432 1431 1432 1439 1443 1452 1432 1429 1429 1429 1428 1433 1432
1529 1525 1521 1517 1513 1510 1506 1503 1499 1496 1493 1490 1487 1485 1484 1483 1482 1480 1479 1476 1474 1470 1469 1461 1457 1451 1448 1453 1456 1456 1453 1449 1449 1442 1436 1435 1438 1439 1433 1441 1436 1433 1430 1427 1434 1443 1435
1527 1523 1519 1516 1512 1509 1507 1503 1499 1495 1493 1490 1488 1485 1484 1483 1481 1481 1479 1478 1475 1474 1472 1465 1461 1457 1455 1459 1464 1464 1463 1458 1456 1448 1443 1443 1442 1444 1450 1453 1442 1436 1429 1434 1442 1439 1438
1524 1521 1518 1514 1512 1509 1506 1502 1498 1495 1493 1490 1487 1485 1482 1482 1481 1480 1479 1477 1476 1474 1473 1468 1467 1463 1460 1460 1465 1465 1462 1465 1462 1462 1444 1447 1447 1446 1449 1444 1444 1443 1442 1442 1441 1441 1442